This is the latest recevied weather packets stored in our database for station/object NL3D. If no packets are shown the sender has not sent any weather packets the latest 1 day(s).
| Time | Temp. | Humidity | Pressure | Rain* | Wind** | Luminosity | Snow |
|---|---|---|---|---|---|---|---|
| 1777997246 | 4.44° C | 99% | 1004.4 hPa | 0 mm | 0.89 m/s, 127° | 47 W/m² | - |
| 1777996944 | 4.44° C | 99% | 1004.4 hPa | 0 mm | 0.89 m/s, 51° | 44 W/m² | - |
| 1777996640 | 4.44° C | 99% | 1004.2 hPa | 0 mm | 0.89 m/s, 73° | 39 W/m² | - |
| 1777996337 | 4.44° C | 99% | 1004.3 hPa | 0 mm | 0 m/s | 38 W/m² | - |
| 1777996033 | 4.44° C | 99% | 1004.1 hPa | 0 mm | 0.89 m/s, 86° | 37 W/m² | - |
| 1777995729 | 4.44° C | 99% | 1004.2 hPa | 0 mm | 1.34 m/s, 54° | 35 W/m² | - |
| 1777995426 | 3.89° C | 99% | 1004.4 hPa | 0 mm | 0.89 m/s, 78° | 33 W/m² | - |
| 1777995123 | 3.89° C | 99% | 1004.2 hPa | 0 mm | 0.89 m/s, 105° | 33 W/m² | - |
| 1777994820 | 3.89° C | 99% | 1003.9 hPa | 0 mm | 0.45 m/s, 41° | 29 W/m² | - |
| 1777994516 | 3.89° C | 99% | 1003.9 hPa | 0 mm | 1.34 m/s, 80° | 26 W/m² | - |
| 1777994211 | 3.89° C | 99% | 1004.1 hPa | 0 mm | 0.89 m/s, 37° | 27 W/m² | - |
| 1777993909 | 3.89° C | 99% | 1003.9 hPa | 0 mm | 0.89 m/s, 120° | 30 W/m² | - |
| 1777993605 | 3.89° C | 99% | 1003.8 hPa | 0 mm | 0.89 m/s, 97° | 29 W/m² | - |
| 1777993302 | 3.89° C | 99% | 1003.8 hPa | 0 mm | 0.89 m/s, 120° | 27 W/m² | - |
| 1777992997 | 3.33° C | 99% | 1003.7 hPa | 0 mm | 0.89 m/s, 100° | 19 W/m² | - |
| 1777992696 | 3.33° C | 99% | 1003.7 hPa | 0 mm | 0.89 m/s, 70° | 17 W/m² | - |
| 1777992394 | 3.33° C | 99% | 1003.6 hPa | 0 mm | 0.89 m/s, 82° | 14 W/m² | - |
| 1777992091 | 3.33° C | 99% | 1003.8 hPa | 0 mm | 1.34 m/s, 63° | 12 W/m² | - |
| 1777991788 | 3.33° C | 99% | 1003.6 hPa | 0 mm | 0.89 m/s, 95° | 12 W/m² | - |
| 1777991485 | 3.33° C | 99% | 1003.7 hPa | 0 mm | 0.89 m/s, 113° | 10 W/m² | - |
| 1777991182 | 3.33° C | 99% | 1003.6 hPa | 0 mm | 0 m/s | 8 W/m² | - |
| 1777990880 | 3.33° C | 99% | 1003.7 hPa | 0 mm | 0.89 m/s, 101° | 6 W/m² | - |
| 1777990577 | 3.33° C | 99% | 1003.6 hPa | 0 mm | 0.89 m/s, 85° | 4 W/m² | - |
| 1777990274 | 3.33° C | 99% | 1003.7 hPa | 0 mm | 0.89 m/s, 74° | 3 W/m² | - |
| 1777989971 | 3.33° C | 99% | 1003.5 hPa | 0 mm | 1.34 m/s, 112° | 3 W/m² | - |
* Rain latest hour (hover to see other rain measurements)
** Current wind speed in m/s (hover to see current wind gust speed)